TimeHST,TemperatureF,Dew PointF,Humidity,Sea Level PressureIn,VisibilityMPH,Wind Direction,Wind SpeedMPH,Gust SpeedMPH,PrecipitationIn,Events,Conditions,WindDirDegrees,DateUTC
12:56 AM,65.8,61.0,84,29.98,10.0,Calm,Calm,-,N/A,,Clear,0,2012-11-03 10:56:00
1:56 AM,64.9,61.9,90,29.96,10.0,Calm,Calm,-,N/A,,Clear,0,2012-11-03 11:56:00
2:56 AM,64.9,63.0,93,29.96,10.0,Calm,Calm,-,N/A,,Clear,0,2012-11-03 12:56:00
3:56 AM,63.9,61.9,93,29.95,10.0,Calm,Calm,-,N/A,,Partly Cloudy,0,2012-11-03 13:56:00
4:56 AM,63.0,61.0,93,29.96,10.0,Calm,Calm,-,N/A,,Partly Cloudy,0,2012-11-03 14:56:00
5:56 AM,63.0,61.0,93,29.98,10.0,Calm,Calm,-,N/A,,Clear,0,2012-11-03 15:56:00
6:56 AM,63.0,59.0,87,29.99,10.0,Calm,Calm,-,N/A,,Scattered Clouds,0,2012-11-03 16:56:00
7:33 AM,68.0,62.6,83,30.04,10.0,Calm,Calm,-,N/A,,Mostly Cloudy,0,2012-11-03 17:33:00
7:45 AM,69.8,64.4,83,30.04,10.0,Calm,Calm,-,N/A,,Overcast,0,2012-11-03 17:45:00
7:56 AM,71.6,64.4,78,30.04,10.0,Calm,Calm,-,N/A,,Overcast,0,2012-11-03 17:56:00
8:56 AM,73.9,63.0,68,30.00,10.0,Calm,Calm,-,N/A,,Overcast,0,2012-11-03 18:56:00
9:56 AM,77.0,59.9,55,30.01,10.0,Calm,Calm,-,N/A,,Overcast,0,2012-11-03 19:56:00
10:56 AM,77.0,60.8,57,30.06,10.0,Calm,Calm,-,N/A,,Mostly Cloudy,0,2012-11-03 20:56:00
11:56 AM,81.0,61.9,52,29.98,10.0,Calm,Calm,-,N/A,,Scattered Clouds,0,2012-11-03 21:56:00
12:56 PM,81.9,61.9,51,29.96,10.0,Calm,Calm,-,N/A,,Clear,0,2012-11-03 22:56:00
1:56 PM,81.9,63.0,53,29.94,10.0,Calm,Calm,-,N/A,,Clear,0,2012-11-03 23:56:00
2:56 PM,81.9,63.9,54,29.93,10.0,Calm,Calm,-,N/A,,Clear,0,2012-11-04 00:56:00
3:56 PM,81.0,63.0,54,29.93,10.0,Calm,Calm,-,N/A,,Partly Cloudy,0,2012-11-04 01:56:00
4:56 PM,80.6,62.6,54,30.00,10.0,Calm,Calm,-,N/A,,Overcast,0,2012-11-04 02:56:00
5:32 PM,75.2,62.6,65,30.01,10.0,Calm,Calm,-,N/A,,Overcast,0,2012-11-04 03:32:00
5:56 PM,73.9,63.9,71,29.97,10.0,Calm,Calm,-,N/A,,Overcast,0,2012-11-04 03:56:00
6:09 PM,73.4,64.4,73,30.02,10.0,Calm,Calm,-,N/A,,Overcast,0,2012-11-04 04:09:00
6:56 PM,70.9,63.0,76,29.99,10.0,Calm,Calm,-,N/A,,Clear,0,2012-11-04 04:56:00
7:56 PM,68.9,61.9,78,30.01,10.0,Calm,Calm,-,N/A,,Partly Cloudy,0,2012-11-04 05:56:00
8:56 PM,68.0,61.9,81,30.02,10.0,Calm,Calm,-,N/A,,Partly Cloudy,0,2012-11-04 06:56:00
9:56 PM,68.9,61.0,76,30.01,10.0,Calm,Calm,-,N/A,,Partly Cloudy,0,2012-11-04 07:56:00
10:56 PM,66.9,61.0,81,30.00,10.0,Calm,Calm,-,N/A,,Clear,0,2012-11-04 08:56:00
11:56 PM,64.9,59.9,84,29.99,10.0,Calm,Calm,-,N/A,,Clear,0,2012-11-04 09:56:00